KAI82 KRYN-KPRC

Flight info

Callsign KAI82
Flight time 0h 30m
Altitude 26000
Route PEVYU
Aircraft C750/M-VGDW/C

Departure

Time 2026-04-24 21:16
Airport Ryan Field (KRYN)

Arrival

Time 2026-04-24 21:46
Airport Prescott Regional Airport - Ernest A. Love Field (KPRC)
Time Latitude Longitude Altitude Speed Heading
2026-04-24 21:07 32.13883 -111.17566 2409 ft 0 kts 63°
2026-04-24 21:13 32.13885 -111.17563 2409 ft 2 kts 63°
2026-04-24 21:13 32.13904 -111.17514 2410 ft 9 kts 69°
2026-04-24 21:13 32.13916 -111.17419 2412 ft 11 kts 77°
2026-04-24 21:14 32.13959 -111.17366 2412 ft 12 kts 340°
2026-04-24 21:14 32.14060 -111.17409 2409 ft 15 kts 340°
2026-04-24 21:14 32.14108 -111.17340 2409 ft 16 kts 70°
2026-04-24 21:14 32.14155 -111.17187 2411 ft 23 kts 70°
2026-04-24 21:15 32.14218 -111.16979 2409 ft 30 kts 70°
2026-04-24 21:15 32.14290 -111.16750 2406 ft 31 kts 71°
2026-04-24 21:15 32.14368 -111.16489 2405 ft 33 kts 70°
2026-04-24 21:15 32.14434 -111.16276 2407 ft 15 kts 62°
2026-04-24 21:16 32.14509 -111.16297 2407 ft 13 kts 283°
2026-04-24 21:16 32.14434 -111.16559 2406 ft 79 kts 250°
2026-04-24 21:16 32.14157 -111.17474 2491 ft 140 kts 250°
2026-04-24 21:16 32.13831 -111.18601 3120 ft 149 kts 250°
2026-04-24 21:17 32.13470 -111.19824 3614 ft 166 kts 249°
2026-04-24 21:17 32.13234 -111.21226 4127 ft 190 kts 274°
2026-04-24 21:17 32.13750 -111.22789 4532 ft 223 kts 302°
2026-04-24 21:17 32.14561 -111.23631 4748 ft 249 kts 327°
2026-04-24 21:18 32.16895 -111.24526 5413 ft 277 kts 343°
2026-04-24 21:18 32.18766 -111.25048 6422 ft 278 kts 343°
2026-04-24 21:18 32.20645 -111.25672 7281 ft 284 kts 341°
2026-04-24 21:18 32.22551 -111.26343 8271 ft 286 kts 341°
2026-04-24 21:19 32.24492 -111.26996 9230 ft 294 kts 341°
2026-04-24 21:19 32.26478 -111.27648 10128 ft 298 kts 341°
2026-04-24 21:19 32.28541 -111.28336 10497 ft 321 kts 341°
2026-04-24 21:19 32.30782 -111.29095 10628 ft 349 kts 341°
2026-04-24 21:20 32.35611 -111.30702 11921 ft 361 kts 341°
2026-04-24 21:20 32.38045 -111.31518 12644 ft 365 kts 340°
2026-04-24 21:20 32.40466 -111.32335 13394 ft 368 kts 340°
2026-04-24 21:21 32.42944 -111.33167 14108 ft 370 kts 340°
2026-04-24 21:21 32.45430 -111.33999 14770 ft 373 kts 340°
2026-04-24 21:21 32.47935 -111.34841 15421 ft 376 kts 340°
2026-04-24 21:21 32.50464 -111.35693 16100 ft 378 kts 340°
2026-04-24 21:22 32.53003 -111.36546 16805 ft 381 kts 339°
2026-04-24 21:22 32.55559 -111.37406 17513 ft 384 kts 339°
2026-04-24 21:22 32.58142 -111.38276 18227 ft 387 kts 339°
2026-04-24 21:22 32.59859 -111.38855 18639 ft 389 kts 339°
2026-04-24 21:23 32.63365 -111.40037 19504 ft 393 kts 339°
2026-04-24 21:23 32.66009 -111.40929 20164 ft 396 kts 338°
2026-04-24 21:23 32.68673 -111.41829 20824 ft 400 kts 338°
2026-04-24 21:23 32.71360 -111.42737 21498 ft 403 kts 338°
2026-04-24 21:24 32.74036 -111.43641 22148 ft 407 kts 338°
2026-04-24 21:24 32.76783 -111.44570 22820 ft 411 kts 338°
2026-04-24 21:24 32.79540 -111.45504 23468 ft 414 kts 337°
2026-04-24 21:24 32.82327 -111.46448 24015 ft 417 kts 337°
2026-04-24 21:25 32.85129 -111.47397 24581 ft 420 kts 337°
2026-04-24 21:25 32.87950 -111.48353 25131 ft 423 kts 337°
2026-04-24 21:25 32.90789 -111.49317 25672 ft 424 kts 337°
2026-04-24 21:25 32.93659 -111.50293 25929 ft 435 kts 337°
2026-04-24 21:26 32.96632 -111.51312 25930 ft 452 kts 337°
2026-04-24 21:26 32.99664 -111.52343 25934 ft 466 kts 337°
2026-04-24 21:26 33.02835 -111.53415 25930 ft 480 kts 338°
2026-04-24 21:26 33.06087 -111.54521 25929 ft 491 kts 338°
2026-04-24 21:27 33.09389 -111.55647 25933 ft 496 kts 338°
2026-04-24 21:27 33.12725 -111.56783 25976 ft 499 kts 338°
2026-04-24 21:27 33.16081 -111.57926 25988 ft 500 kts 338°
2026-04-24 21:27 33.18295 -111.58682 25997 ft 500 kts 338°
2026-04-24 21:28 33.22784 -111.60218 26008 ft 501 kts 338°
2026-04-24 21:28 33.26134 -111.61365 26008 ft 501 kts 338°
2026-04-24 21:28 33.29491 -111.62513 26006 ft 501 kts 338°
2026-04-24 21:28 33.32847 -111.63663 26009 ft 501 kts 338°
2026-04-24 21:29 33.36147 -111.64795 26006 ft 501 kts 338°
2026-04-24 21:29 33.39495 -111.65945 26007 ft 500 kts 338°
2026-04-24 21:29 33.42821 -111.67083 25979 ft 485 kts 338°
2026-04-24 21:29 33.46062 -111.68193 25972 ft 486 kts 337°
2026-04-24 21:30 33.49323 -111.69327 25975 ft 488 kts 337°
2026-04-24 21:30 33.52590 -111.70456 25975 ft 489 kts 337°
2026-04-24 21:30 33.55860 -111.71575 25981 ft 489 kts 337°
2026-04-24 21:30 33.59126 -111.72698 25973 ft 489 kts 337°
2026-04-24 21:31 33.62402 -111.73833 25987 ft 489 kts 337°
2026-04-24 21:31 33.65629 -111.74950 25989 ft 489 kts 337°
2026-04-24 21:31 33.68903 -111.76080 25992 ft 489 kts 337°
2026-04-24 21:31 33.72177 -111.77210 25986 ft 489 kts 337°
2026-04-24 21:32 33.75445 -111.78343 25981 ft 489 kts 337°
2026-04-24 21:32 33.77651 -111.79109 25983 ft 489 kts 337°
2026-04-24 21:32 33.80926 -111.80245 25977 ft 489 kts 337°
2026-04-24 21:32 33.84196 -111.81378 25974 ft 489 kts 337°
2026-04-24 21:33 33.87421 -111.82497 25964 ft 488 kts 337°
2026-04-24 21:33 33.90688 -111.83634 25958 ft 489 kts 337°
2026-04-24 21:33 33.93961 -111.84773 25951 ft 488 kts 337°
2026-04-24 21:33 33.97224 -111.85908 25946 ft 486 kts 337°
2026-04-24 21:34 34.00374 -111.86990 25385 ft 457 kts 337°
2026-04-24 21:34 34.03339 -111.88015 24788 ft 431 kts 336°
2026-04-24 21:34 34.06165 -111.89014 24224 ft 418 kts 336°
2026-04-24 21:34 34.08935 -111.89997 23686 ft 413 kts 336°
2026-04-24 21:35 34.11685 -111.90957 23104 ft 409 kts 336°
2026-04-24 21:35 34.14414 -111.91904 22559 ft 408 kts 336°
2026-04-24 21:35 34.17135 -111.92855 22032 ft 406 kts 336°
2026-04-24 21:35 34.19842 -111.93807 21494 ft 405 kts 337°
2026-04-24 21:36 34.22547 -111.94755 20958 ft 401 kts 337°
2026-04-24 21:36 34.25228 -111.95692 20426 ft 399 kts 337°
2026-04-24 21:36 34.27861 -111.96616 19908 ft 397 kts 337°
2026-04-24 21:36 34.30508 -111.97547 19388 ft 396 kts 338°
2026-04-24 21:37 34.33154 -111.98476 18860 ft 394 kts 338°
2026-04-24 21:37 34.35781 -111.99398 18342 ft 393 kts 338°
2026-04-24 21:37 34.38396 -112.00319 17795 ft 390 kts 338°
2026-04-24 21:37 34.40993 -112.01231 17276 ft 388 kts 338°
2026-04-24 21:38 34.43575 -112.02141 16758 ft 383 kts 338°
2026-04-24 21:38 34.46132 -112.03042 16254 ft 380 kts 339°
2026-04-24 21:38 34.48631 -112.03924 15762 ft 377 kts 339°
2026-04-24 21:38 34.51139 -112.04808 15272 ft 374 kts 339°
2026-04-24 21:39 34.53634 -112.05689 14790 ft 372 kts 339°
2026-04-24 21:39 34.56105 -112.06562 14318 ft 369 kts 339°
2026-04-24 21:39 34.58563 -112.07431 13837 ft 367 kts 339°
2026-04-24 21:39 34.60998 -112.08292 13329 ft 363 kts 339°
2026-04-24 21:40 34.63433 -112.09155 12857 ft 363 kts 340°
2026-04-24 21:40 34.65843 -112.10006 12389 ft 359 kts 340°
2026-04-24 21:40 34.68252 -112.10860 11900 ft 361 kts 340°
2026-04-24 21:40 34.70647 -112.11711 11439 ft 360 kts 340°
2026-04-24 21:41 34.72993 -112.12542 11009 ft 342 kts 339°
2026-04-24 21:41 34.75214 -112.13325 10649 ft 324 kts 339°
2026-04-24 21:41 34.77329 -112.14074 10322 ft 310 kts 339°
2026-04-24 21:41 34.79319 -112.14942 9923 ft 297 kts 327°
2026-04-24 21:42 34.80855 -112.16518 9537 ft 285 kts 306°
2026-04-24 21:42 34.81824 -112.18523 9186 ft 275 kts 288°
2026-04-24 21:42 34.82187 -112.20756 8906 ft 265 kts 269°
2026-04-24 21:42 34.81950 -112.22976 8707 ft 266 kts 252°
2026-04-24 21:43 34.81147 -112.24976 8501 ft 262 kts 235°
2026-04-24 21:43 34.79886 -112.26579 8301 ft 263 kts 223°
2026-04-24 21:43 34.78506 -112.28032 8100 ft 262 kts 223°
2026-04-24 21:43 34.77154 -112.29475 7870 ft 263 kts 223°
2026-04-24 21:44 34.75774 -112.30959 7499 ft 264 kts 223°
2026-04-24 21:44 34.74404 -112.32421 7151 ft 260 kts 223°
2026-04-24 21:44 34.73045 -112.33866 6820 ft 259 kts 223°
2026-04-24 21:44 34.71686 -112.35312 6488 ft 248 kts 223°
2026-04-24 21:45 34.70460 -112.36614 6149 ft 224 kts 222°
2026-04-24 21:45 34.69306 -112.37845 5810 ft 213 kts 221°
2026-04-24 21:45 34.68290 -112.38924 5575 ft 176 kts 222°
2026-04-24 21:45 34.67395 -112.39878 5337 ft 159 kts 222°
2026-04-24 21:46 34.66640 -112.40680 5123 ft 132 kts 223°
2026-04-24 21:46 34.66004 -112.41363 4985 ft 110 kts 221°
2026-04-24 21:46 34.65545 -112.41847 5000 ft 61 kts 221°
2026-04-24 21:46 34.65293 -112.42113 5013 ft 27 kts 220°